This is the latest recevied weather packets stored in our database for station/object OK2CME-6. If no packets are shown the sender has not sent any weather packets the latest 10 day(s).
| Time | Temp. | Humidity | Pressure | Rain* | Wind** | Luminosity | Snow |
|---|---|---|---|---|---|---|---|
| 1777829297 | 18.89° C | 40% | 1019.9 hPa | 0 mm | - | 31 W/m² | - |
| 1777828097 | 19.44° C | 40% | 1020.1 hPa | 0 mm | - | 40 W/m² | - |
| 1777826897 | 19.44° C | 39% | 1020 hPa | 0 mm | - | 58 W/m² | - |
| 1777825697 | 20° C | 37% | 1020.1 hPa | 0 mm | - | 110 W/m² | - |
| 1777824497 | 20.56° C | 38% | 1020.4 hPa | 0 mm | - | 163 W/m² | - |
| 1777823297 | 20.56° C | 37% | 1020.5 hPa | 0 mm | - | 44 W/m² | - |
| 1777822097 | 20.56° C | 38% | 1020.2 hPa | 0 mm | - | 275 W/m² | - |
| 1777820897 | 20.56° C | 38% | 1020.5 hPa | 0 mm | - | 320 W/m² | - |
| 1777819697 | 21.11° C | 37% | 1020.7 hPa | 0 mm | - | 370 W/m² | - |
| 1777818497 | 20.56° C | 38% | 1020.5 hPa | 0 mm | - | 414 W/m² | - |
| 1777817297 | 21.11° C | 37% | 1021.1 hPa | 0 mm | - | 457 W/m² | - |
| 1777816097 | 20.56° C | 38% | 1021.1 hPa | 0 mm | - | 492 W/m² | - |
| 1777814897 | 20.56° C | 37% | 1021.4 hPa | 0 mm | - | 510 W/m² | - |
| 1777813697 | 20.56° C | 38% | 1021.7 hPa | 0 mm | - | 490 W/m² | - |
| 1777812497 | 20° C | 39% | 1022 hPa | 0 mm | - | 587 W/m² | - |
| 1777811297 | 20.56° C | 39% | 1022.1 hPa | 0 mm | - | 620 W/m² | - |
| 1777810097 | 19.44° C | 40% | 1022.2 hPa | 0 mm | - | 633 W/m² | - |
| 1777808897 | 19.44° C | 40% | 1022.3 hPa | 0 mm | - | 640 W/m² | - |
| 1777807697 | 19.44° C | 40% | 1022.7 hPa | 0 mm | - | 657 W/m² | - |
| 1777806497 | 18.89° C | 41% | 1022.8 hPa | 0 mm | - | 654 W/m² | - |
| 1777805297 | 18.33° C | 42% | 1022.8 hPa | 0 mm | - | 650 W/m² | - |
| 1777804097 | 17.78° C | 43% | 1023.1 hPa | 0 mm | - | 642 W/m² | - |
| 1777802897 | 18.33° C | 43% | 1022.9 hPa | 0 mm | - | 628 W/m² | - |
| 1777801697 | 17.78° C | 43% | 1023.2 hPa | 0 mm | - | 610 W/m² | - |
| 1777800497 | 17.22° C | 44% | 1023.4 hPa | 0 mm | - | 588 W/m² | - |
* Rain latest hour (hover to see other rain measurements)
** Current wind speed in m/s (hover to see current wind gust speed)